Regional Weather Roundup
Issued by NWS

Home | Current Version | Previous Version | Text Only | Print | Product List | Glossary On
Versions: 1 2 3 4 5 6 7 8 9 10 11 12 13 14 15 16 17 18 19 20 21 22 23 24 25 26 27
000
ASUS44 KBMX 201710
RWRAL

ALABAMA REGIONAL WEATHER ROUNDUP
NATIONAL WEATHER SERVICE BIRMINGHAM AL
1100 AM CST MON NOV 20 2017

NOTE: "FAIR" INDICATES FEW OR NO CLOUDS BELOW 12,000 FEET
WITH NO SIGNIFICANT WEATHER AND/OR OBSTRUCTIONS TO VISIBILITY.

THE REMARK "TC" DENOTES TEMPERATURE IN DEGREES CELSIUS.

ALZ001>011-014-016>018-020-201800-
NORTH ALABAMA

CITY           SKY/WX    TMP DP  RH WIND       PRES   REMARKS
MUSCLE SHOALS  CLOUDY    47  27  45 CALM      30.26F
HUNTSVILLE     PTSUNNY   49  29  46 CALM      30.25F
DECATUR        SUNNY     47  27  45 VRB6      30.26F
HALEYVILLE     FAIR      48  23  37 CALM      30.26F
GADSDEN        CLOUDY    49  30  48 VRB3      30.26F
$$

ALZ012-013-022-023-030>036-040>044-201800-
WEST CENTRAL ALABAMA

CITY           SKY/WX    TMP DP  RH WIND       PRES   REMARKS
TUSCALOOSA     MOSUNNY   50  31  48 CALM      30.26F
DEMOPOLIS        N/A     52  30  42 CALM      30.24F
$$

ALZ015-024>026-033>036-041>044-201800-
CENTRAL ALABAMA

CITY           SKY/WX    TMP DP  RH WIND       PRES   REMARKS
BIRMINGHAM     PTSUNNY   51  24  34 CALM      30.26F
MONTGOMERY     MOSUNNY   51  29  42 E7        30.24F
SHELBY CO ARPT CLOUDY    50  28  42 E5        30.24F
MAXWELL AFB    CLOUDY    52  31  44 E6        30.22F
GREENVILLE     FAIR      52  31  44 E3        30.21F
SELMA          FAIR      52  30  43 SE7       30.23F
PRATTVILLE     FAIR      51  31  46 E3        30.23F
BESSEMER       FAIR      48  27  44 VRB3      30.25F
TALLADEGA      FAIR      49  31  51 NW3       30.26F
PELL CITY      SUNNY     48  30  49 CALM      30.26F
MARION         FAIR      49  30  49 CALM      30.24F
SYLACAUGA      FAIR      54  33  44 E3        30.25F
$$

ALZ019-021-028-029-037-038-045>048-201800-
EAST CENTRAL ALABAMA

CITY           SKY/WX    TMP DP  RH WIND       PRES   REMARKS
ANNISTON       SUNNY     52  30  43 CALM      30.25F
ALEXANDER CITY CLOUDY    50  30  46 S6        30.24F
AUBURN         SUNNY     53  32  44 VRB6      30.24F
$$

ALZ051>064-201800-
SOUTHWEST ALABAMA

CITY           SKY/WX    TMP DP  RH WIND       PRES   REMARKS
MOBILE         CLOUDY    52  31  44 SE7       30.23F
BROOKLEY FIELD MOSUNNY   51  34  52 E7        30.24F
EVERGREEN      MOSUNNY   54  33  45 VRB3      30.22F
$$

ALZ049-050-065>069-201800-
SOUTHEAST ALABAMA

CITY           SKY/WX    TMP DP  RH WIND       PRES   REMARKS
DOTHAN         CLOUDY    55  34  45 E6        30.25F
OZARK          PTSUNNY   57  33  40 E5        30.20F
TROY           CLOUDY    56  34  43 VRB3      30.22F
EUFAULA        FAIR      55  36  48 E6        30.22F
$$




USA.gov is the U.S. government's official web portal to all federal, state and local government web resources and services.